Time[GMT],dominant_wave_period[s](0m),mean_wave_direction[degrees](0m),max_wave_height[m](0m),significant_wave_height[m](0m),mean_wave_direction_spread[degrees](0m)
2019-08-26 20:00,5.9,123.50,1.19,0.85,30.00
2019-08-26 21:00,5.7,123.50,1.66,0.91,30.00
2019-08-26 22:00,5.3,124.50,1.44,0.88,31.00
2019-08-26 23:00,5.9,118.50,1.32,0.91,28.00
2019-08-27 00:00,6.1,121.50,1.41,0.87,28.00
2019-08-27 01:00,5.9,121.50,1.56,0.85,29.00
2019-08-27 02:00,5.7,121.50,1.46,0.83,29.00
2019-08-27 03:00,5.9,119.50,1.35,0.82,29.00
2019-08-27 04:00,5.9,122.50,1.31,0.80,31.00
2019-08-27 06:00,5.9,130.50,1.45,0.72,28.00
2019-08-27 07:00,4.9,131.50,1.19,0.70,27.00
2019-08-27 08:00,5.7,129.50,1.14,0.75,24.00
2019-08-27 09:00,5.9,131.50,1.32,0.76,24.00
2019-08-27 10:00,5.7,130.50,1.08,0.71,25.00
2019-08-27 11:00,5.4,131.50,0.95,0.65,27.00
2019-08-27 12:00,5.7,131.50,1.17,0.71,24.00
2019-08-27 13:00,5.9,128.50,1.03,0.69,26.00
2019-08-27 14:00,5.9,129.50,1.20,0.71,25.00
2019-08-27 15:00,6.3,127.50,1.24,0.76,23.00
2019-08-27 16:00,6.3,127.50,1.38,0.82,24.00
2019-08-27 17:00,5.4,123.50,1.63,1.00,22.00
2019-08-27 18:00,5.7,112.50,2.09,1.10,26.00
2019-08-27 19:00,3.9,108.50,2.08,1.15,27.00
2019-08-27 20:00,3.9,112.50,1.91,1.10,28.00
2019-08-27 21:00,4.4,114.50,1.74,1.11,26.00
2019-08-27 22:00,4.0,115.50,1.89,1.12,26.00
2019-08-27 23:00,6.3,121.50,1.92,1.05,23.00
2019-08-28 00:00,4.7,122.50,1.57,0.88,27.00
2019-08-28 01:00,6.7,122.50,1.34,0.86,24.00
2019-08-28 02:00,6.7,121.50,1.34,0.75,26.00
2019-08-28 03:00,6.9,121.50,1.12,0.76,24.00
2019-08-28 04:00,6.1,119.50,1.13,0.81,25.00
2019-08-28 05:00,5.9,118.50,1.24,0.84,23.00
2019-08-28 06:00,6.1,118.50,1.20,0.81,25.00
2019-08-28 07:00,9.1,116.50,1.23,0.80,22.00
2019-08-28 08:00,8.0,118.50,1.24,0.77,22.00
2019-08-28 09:00,8.7,119.50,1.18,0.77,21.00
2019-08-28 10:00,8.3,119.50,1.31,0.83,21.00
2019-08-28 11:00,8.0,119.50,1.35,0.83,19.00
2019-08-28 12:00,7.7,118.50,1.57,0.94,19.00
2019-08-28 13:00,8.0,118.50,1.62,0.93,19.00
2019-08-28 14:00,7.7,121.50,1.47,0.93,19.00
2019-08-28 15:00,8.0,118.50,1.62,0.92,20.00
2019-08-28 16:00,7.7,118.50,1.34,0.97,19.00
2019-08-28 17:00,8.0,118.50,1.79,1.14,19.00
2019-08-28 18:00,7.7,117.50,2.13,1.09,21.00
2019-08-28 19:00,8.0,117.50,2.04,1.11,21.00
2019-08-28 20:00,8.3,120.50,1.68,1.00,21.00
2019-08-28 21:00,8.0,129.50,1.55,0.89,32.00
2019-08-28 22:00,8.7,127.50,1.98,0.93,30.00
2019-08-28 23:00,6.7,133.50,1.41,0.86,29.00
2019-08-29 00:00,6.9,133.50,1.24,0.81,28.00
2019-08-29 01:00,6.9,136.50,1.15,0.77,28.00
2019-08-29 02:00,8.3,135.50,1.20,0.67,29.00
2019-08-29 03:00,7.4,137.50,1.06,0.62,30.00
2019-08-29 04:00,7.1,143.50,1.17,0.59,32.00
2019-08-29 05:00,7.4,142.50,0.96,0.61,33.00
2019-08-29 06:00,6.7,133.50,1.08,0.66,32.00
2019-08-29 07:00,7.1,126.50,1.10,0.73,30.00
2019-08-29 08:00,7.4,133.50,1.18,0.73,31.00
2019-08-29 09:00,7.1,128.50,1.14,0.71,30.00
2019-08-29 10:00,7.7,129.50,1.25,0.73,25.00
2019-08-29 11:00,7.1,125.50,1.06,0.75,25.00
2019-08-29 12:00,7.4,126.50,1.30,0.71,24.00
2019-08-29 13:00,7.1,124.50,1.37,0.83,22.00
2019-08-29 14:00,6.5,126.50,1.23,0.77,26.00
2019-08-29 15:00,6.3,126.50,1.43,0.93,24.00
2019-08-29 16:00,6.9,123.50,2.18,1.17,25.00
2019-08-29 17:00,5.7,117.50,2.29,1.14,29.00
2019-08-29 18:00,6.3,119.50,1.92,1.10,30.00
2019-08-29 19:00,4.7,124.50,1.85,1.04,29.00
2019-08-29 20:00,5.1,122.50,2.04,1.19,26.00
2019-08-29 21:00,6.3,126.50,1.68,1.06,25.00
2019-08-29 22:00,5.9,130.50,1.49,0.92,28.00
2019-08-29 23:00,6.5,132.50,1.46,0.91,28.00
2019-08-30 00:00,6.5,132.50,1.70,1.03,26.00
2019-08-30 01:00,6.7,135.50,1.49,0.99,27.00
2019-08-30 02:00,6.7,135.50,2.30,1.05,25.00
2019-08-30 03:00,6.5,139.50,1.58,1.07,25.00
2019-08-30 04:00,6.3,138.50,1.72,1.03,28.00
2019-08-30 05:00,6.9,140.50,1.96,1.16,23.00
2019-08-30 06:00,6.5,137.50,1.87,1.08,27.00
2019-08-30 07:00,6.5,133.50,1.77,1.18,24.00
2019-08-30 08:00,6.7,135.50,2.01,1.11,29.00
2019-08-30 09:00,6.3,137.50,1.58,1.06,27.00
2019-08-30 10:00,6.7,140.50,1.66,0.97,27.00
2019-08-30 11:00,6.3,139.50,1.30,0.86,29.00
2019-08-30 12:00,6.3,140.50,1.42,0.89,27.00
2019-08-30 13:00,6.3,140.50,1.23,0.83,30.00
2019-08-30 14:00,6.5,139.50,1.36,0.86,31.00
2019-08-30 15:00,6.3,139.50,1.42,0.96,27.00
2019-08-30 16:00,5.9,138.50,1.43,0.93,33.00
2019-08-30 17:00,6.3,139.50,1.67,0.99,31.00
2019-08-30 18:00,5.9,128.50,1.55,1.05,33.00
2019-08-30 19:00,5.9,124.50,1.90,1.12,32.00
2019-08-30 20:00,5.7,133.50,1.70,1.05,36.00
2019-08-30 21:00,5.9,133.50,1.73,0.99,33.00
2019-08-30 22:00,5.9,137.50,1.77,1.00,30.00
2019-08-30 23:00,5.6,141.50,1.36,0.90,30.00
2019-08-31 00:00,5.7,144.50,1.50,0.85,31.00
2019-08-31 01:00,5.4,141.50,1.29,0.80,31.00
2019-08-31 02:00,5.7,141.50,1.24,0.76,31.00
2019-08-31 03:00,5.6,140.50,1.20,0.74,31.00
2019-08-31 04:00,5.4,142.50,1.26,0.72,36.00
2019-08-31 05:00,5.7,136.50,1.30,0.72,32.00
2019-08-31 06:00,5.4,130.50,1.29,0.75,30.00
2019-08-31 07:00,5.7,127.50,1.44,0.67,31.00
2019-08-31 08:00,5.6,130.50,1.40,0.81,30.00
2019-08-31 09:00,5.0,130.50,1.30,0.75,30.00
2019-08-31 10:00,5.4,133.50,1.17,0.66,30.00
2019-08-31 11:00,5.6,136.50,1.09,0.68,31.00
2019-08-31 12:00,5.3,136.50,1.06,0.64,32.00
2019-08-31 13:00,5.3,134.50,1.04,0.63,32.00
2019-08-31 14:00,5.0,136.50,1.22,0.67,31.00
2019-08-31 15:00,5.0,140.50,1.16,0.63,35.00
2019-08-31 16:00,5.4,136.50,1.18,0.62,34.00
2019-08-31 17:00,5.0,140.50,1.13,0.58,36.00
2019-08-31 18:00,5.1,139.50,1.10,0.61,33.00
2019-08-31 19:00,5.3,141.50,1.15,0.66,31.00
2019-08-31 20:00,5.4,133.50,1.15,0.73,30.00
2019-08-31 21:00,5.1,133.50,1.27,0.72,32.00
2019-08-31 22:00,5.0,134.50,1.05,0.67,33.00
2019-08-31 23:00,5.0,141.50,1.10,0.63,32.00
2019-09-01 00:00,4.9,143.50,1.15,0.67,30.00
2019-09-01 01:00,5.4,139.50,1.23,0.59,34.00
2019-09-01 02:00,5.4,140.50,1.15,0.63,31.00
2019-09-01 03:00,5.1,135.50,0.83,0.58,31.00
2019-09-01 04:00,5.6,134.50,0.89,0.56,31.00
2019-09-01 05:00,5.4,134.50,0.95,0.55,30.00
2019-09-01 06:00,5.6,132.50,0.87,0.54,31.00
2019-09-01 07:00,5.4,132.50,1.08,0.60,27.00
2019-09-01 08:00,5.0,127.50,1.18,0.67,28.00
2019-09-01 09:00,5.1,122.50,1.23,0.74,28.00
2019-09-01 10:00,5.0,123.50,1.03,0.62,32.00
2019-09-01 11:00,4.7,127.50,0.87,0.61,28.00
2019-09-01 12:00,5.1,130.50,1.00,0.61,30.00
2019-09-01 13:00,5.0,131.50,0.96,0.56,30.00
2019-09-01 14:00,5.3,131.50,0.88,0.54,30.00
2019-09-01 15:00,5.3,133.50,0.83,0.54,31.00
2019-09-01 16:00,5.1,133.50,0.96,0.62,30.00
2019-09-01 17:00,5.3,136.50,0.90,0.60,30.00
2019-09-01 18:00,5.1,132.50,0.86,0.56,33.00
2019-09-01 19:00,5.1,134.50,0.98,0.56,31.00
2019-09-01 20:00,5.1,133.50,0.85,0.60,29.00
2019-09-01 21:00,5.1,131.50,1.07,0.63,27.00
2019-09-01 22:00,4.5,125.50,1.06,0.61,29.00
2019-09-01 23:00,4.4,127.50,1.14,0.65,29.00
2019-09-02 00:00,5.3,132.50,1.04,0.55,31.00
2019-09-02 01:00,4.5,136.50,0.81,0.52,32.00
2019-09-02 02:00,4.7,132.50,0.97,0.53,32.00
2019-09-02 03:00,5.3,133.50,0.96,0.52,34.00
2019-09-02 04:00,5.0,133.50,0.72,0.49,31.00
2019-09-02 05:00,5.1,136.50,0.73,0.45,33.00
2019-09-02 06:00,5.1,138.50,0.80,0.46,33.00
2019-09-02 07:00,5.1,131.50,0.73,0.45,32.00
2019-09-02 08:00,4.5,127.50,0.93,0.53,30.00
2019-09-02 09:00,4.3,130.50,1.06,0.59,29.00
2019-09-02 10:00,4.8,122.50,1.07,0.62,32.00
2019-09-02 11:00,4.8,119.50,1.35,0.65,28.00
2019-09-02 12:00,4.8,129.50,0.98,0.57,31.00
2019-09-02 13:00,4.5,132.50,0.98,0.55,31.00
2019-09-02 14:00,4.7,138.50,1.06,0.53,30.00
2019-09-02 15:00,4.7,141.50,0.89,0.53,30.00
2019-09-02 16:00,5.0,140.50,1.05,0.59,29.00
2019-09-02 17:00,4.9,139.50,0.92,0.62,31.00
2019-09-02 18:00,4.1,138.50,0.99,0.58,33.00
2019-09-02 19:00,5.0,143.50,0.94,0.53,34.00
2019-09-02 20:00,5.0,147.50,1.03,0.55,32.00
2019-09-02 21:00,4.8,145.50,1.00,0.58,29.00
2019-09-02 22:00,4.9,142.50,1.01,0.67,27.00
2019-09-02 23:00,4.9,138.50,1.16,0.68,30.00
2019-09-03 00:00,4.7,131.50,1.13,0.77,31.00
2019-09-03 01:00,4.8,136.50,1.16,0.68,31.00
2019-09-03 02:00,4.3,133.50,0.90,0.58,31.00
2019-09-03 03:00,5.0,138.50,1.01,0.59,31.00
2019-09-03 04:00,5.3,136.50,0.87,0.57,32.00
2019-09-03 05:00,4.9,138.50,1.01,0.58,31.00
2019-09-03 06:00,4.0,138.50,1.19,0.61,31.00
2019-09-03 07:00,4.9,139.50,1.06,0.61,30.00
2019-09-03 08:00,5.0,139.50,1.40,0.65,31.00
2019-09-03 09:00,4.5,136.50,1.14,0.70,29.00
2019-09-03 10:00,5.0,140.50,1.07,0.71,28.00
2019-09-03 11:00,4.9,139.50,1.03,0.65,32.00
2019-09-03 12:00,5.6,140.50,1.17,0.69,29.00
2019-09-03 13:00,5.0,141.50,1.19,0.74,29.00
2019-09-03 14:00,5.3,138.50,1.28,0.71,30.00
2019-09-03 15:00,5.3,133.50,1.64,0.77,30.00
2019-09-03 16:00,5.3,132.50,1.21,0.75,30.00
2019-09-03 17:00,5.6,133.50,1.33,0.87,27.00
2019-09-03 18:00,5.6,128.50,1.45,0.88,29.00
2019-09-03 19:00,5.4,130.50,1.42,0.88,29.00
2019-09-03 20:00,5.7,128.50,1.43,0.90,29.00
2019-09-03 21:00,5.4,125.50,1.68,0.90,30.00
2019-09-03 22:00,4.9,127.50,1.66,0.99,30.00
2019-09-03 23:00,5.4,125.50,1.72,1.04,30.00
2019-09-04 00:00,5.3,124.50,2.27,1.01,30.00
2019-09-04 01:00,5.4,131.50,1.98,1.24,26.00
2019-09-04 02:00,5.7,128.50,1.54,0.97,31.00
2019-09-04 03:00,5.3,132.50,1.81,0.94,30.00
2019-09-04 04:00,5.7,132.50,1.59,1.03,29.00
2019-09-04 05:00,5.7,130.50,1.73,1.07,29.00
2019-09-04 06:00,5.6,127.50,2.13,1.13,31.00
2019-09-04 07:00,5.7,125.50,1.78,1.13,28.00
2019-09-04 08:00,6.3,124.50,2.15,1.16,27.00
2019-09-04 09:00,6.3,121.50,2.10,1.27,26.00
2019-09-04 10:00,6.3,123.50,2.11,1.29,24.00
2019-09-04 11:00,6.5,127.50,2.42,1.48,22.00
2019-09-04 12:00,6.3,124.50,1.92,1.26,26.00
2019-09-04 13:00,6.5,121.50,2.12,1.20,27.00
2019-09-04 14:00,5.9,122.50,2.14,1.21,24.00
2019-09-04 15:00,5.9,127.50,1.76,1.06,29.00
2019-09-04 16:00,6.5,133.50,1.84,1.15,26.00
2019-09-04 17:00,6.7,130.50,1.86,1.04,29.00
2019-09-04 18:00,6.7,132.50,1.48,0.97,28.00
2019-09-04 19:00,6.3,130.50,1.72,0.97,28.00
2019-09-04 20:00,6.9,129.50,1.87,0.92,29.00
2019-09-04 21:00,6.5,127.50,2.08,1.01,26.00
2019-09-04 22:00,6.9,128.50,1.78,1.04,26.00
2019-09-04 23:00,5.9,124.50,1.74,1.12,27.00
2019-09-05 00:00,6.9,120.50,2.04,1.05,28.00
2019-09-05 01:00,6.3,120.50,1.59,1.02,28.00
2019-09-05 02:00,5.9,124.50,1.63,0.95,28.00
2019-09-05 03:00,6.9,126.50,1.53,0.87,28.00
2019-09-05 04:00,6.7,129.50,1.40,0.80,27.00
2019-09-05 05:00,6.1,130.50,1.19,0.82,24.00
2019-09-05 06:00,6.9,129.50,1.13,0.75,25.00
2019-09-05 07:00,6.7,127.50,1.35,0.79,23.00
2019-09-05 08:00,6.5,125.50,1.18,0.77,24.00
2019-09-05 09:00,5.7,123.50,1.24,0.77,25.00
2019-09-05 10:00,6.1,121.50,1.41,0.89,22.00
2019-09-05 11:00,5.6,122.50,1.56,0.86,25.00
2019-09-05 12:00,6.1,117.50,1.96,1.10,24.00
2019-09-05 13:00,6.5,118.50,1.41,0.90,23.00
2019-09-05 14:00,5.6,119.50,1.41,0.83,25.00
2019-09-05 15:00,5.9,122.50,1.51,0.80,26.00
2019-09-05 16:00,5.6,123.50,1.25,0.75,27.00
2019-09-05 17:00,5.7,118.50,1.36,0.81,27.00
2019-09-05 18:00,5.7,113.50,1.37,0.90,24.00
2019-09-05 19:00,5.9,118.50,1.36,0.83,25.00
2019-09-05 20:00,5.7,119.50,1.33,0.83,27.00
2019-09-05 21:00,6.3,115.50,1.45,0.84,30.00
2019-09-05 22:00,5.7,120.50,1.85,0.88,28.00
2019-09-05 23:00,5.7,117.50,1.50,0.91,28.00
2019-09-06 00:00,5.6,123.50,1.29,0.81,26.00
2019-09-06 01:00,5.9,126.50,1.47,0.86,24.00
2019-09-06 02:00,5.6,123.50,1.09,0.68,27.00
2019-09-06 03:00,5.9,126.50,1.27,0.68,30.00
2019-09-06 04:00,5.7,130.50,1.37,0.62,30.00
2019-09-06 05:00,5.4,127.50,1.02,0.60,30.00
2019-09-06 06:00,5.7,130.50,0.93,0.60,29.00
2019-09-06 07:00,5.9,136.50,0.87,0.53,31.00
2019-09-06 08:00,5.9,137.50,1.06,0.57,27.00
2019-09-06 09:00,5.7,133.50,0.96,0.57,29.00
2019-09-06 10:00,5.9,137.50,0.86,0.52,29.00
2019-09-06 11:00,5.1,133.50,0.81,0.53,29.00
2019-09-06 12:00,5.3,132.50,0.86,0.51,28.00
2019-09-06 13:00,5.6,128.50,1.07,0.56,28.00
2019-09-06 14:00,4.7,119.50,0.91,0.57,28.00
2019-09-06 15:00,5.0,119.50,0.87,0.51,28.00
2019-09-06 16:00,4.9,120.50,0.74,0.46,31.00
2019-09-06 17:00,5.9,122.50,0.70,0.44,35.00
2019-09-06 18:00,3.9,122.50,0.83,0.45,32.00
2019-09-06 19:00,5.1,129.50,0.73,0.43,34.00
2019-09-06 20:00,5.6,127.50,0.59,0.39,37.00
2019-09-06 21:00,5.9,120.50,0.75,0.45,37.00
2019-09-06 22:00,5.1,122.50,0.63,0.41,36.00
2019-09-06 23:00,5.6,124.50,0.62,0.36,36.00
2019-09-07 00:00,7.4,131.50,0.70,0.39,35.00
2019-09-07 01:00,4.8,124.50,0.63,0.40,31.00
2019-09-07 02:00,5.3,119.50,0.68,0.41,29.00
2019-09-07 03:00,5.7,121.50,0.60,0.37,33.00
2019-09-07 04:00,5.0,131.50,0.56,0.36,33.00
2019-09-07 05:00,5.1,136.50,0.60,0.35,34.00
2019-09-07 06:00,5.0,135.50,0.60,0.37,31.00
2019-09-07 07:00,4.5,130.50,0.60,0.41,30.00
2019-09-07 08:00,5.1,128.50,0.63,0.39,32.00
2019-09-07 09:00,5.4,128.50,0.67,0.41,32.00
2019-09-07 10:00,3.6,131.50,0.65,0.41,35.00
2019-09-07 11:00,5.1,133.50,0.58,0.37,38.00
2019-09-07 12:00,3.4,125.50,0.66,0.39,36.00
2019-09-07 13:00,4.7,126.50,0.58,0.40,34.00
2019-09-07 14:00,4.9,132.50,0.52,0.35,36.00
2019-09-07 15:00,5.0,140.50,0.65,0.34,34.00
2019-09-07 16:00,4.4,143.50,0.65,0.33,36.00
2019-09-07 17:00,4.2,145.50,0.58,0.31,40.00
2019-09-07 18:00,4.4,147.50,0.61,0.34,39.00
2019-09-07 19:00,4.2,143.50,0.57,0.35,36.00
2019-09-07 20:00,3.3,143.50,0.58,0.35,34.00
2019-09-07 21:00,3.6,148.50,0.60,0.33,37.00
2019-09-07 22:00,3.5,141.50,0.63,0.34,44.00
2019-09-07 23:00,8.0,141.50,0.62,0.33,43.00
2019-09-08 00:00,3.6,141.50,0.49,0.30,42.00
2019-09-08 01:00,4.7,133.50,0.49,0.31,41.00
2019-09-08 02:00,3.4,137.50,0.55,0.33,35.00
2019-09-08 03:00,4.5,127.50,0.51,0.34,34.00
2019-09-08 04:00,4.3,135.50,0.52,0.35,33.00
2019-09-08 05:00,3.5,135.50,0.58,0.31,37.00
2019-09-08 06:00,4.1,138.50,0.58,0.31,34.00
2019-09-08 07:00,4.1,139.50,0.54,0.31,31.00
2019-09-08 08:00,3.8,137.50,0.48,0.34,29.00
2019-09-08 09:00,3.6,128.50,0.56,0.35,34.00
2019-09-08 10:00,4.0,125.50,0.66,0.37,34.00
2019-09-08 11:00,3.8,131.50,0.49,0.32,36.00
2019-09-08 12:00,4.7,136.50,0.55,0.30,38.00
2019-09-08 13:00,3.6,146.50,0.47,0.29,39.00
2019-09-08 14:00,8.3,145.50,0.44,0.26,39.00
2019-09-08 15:00,4.3,151.50,0.40,0.26,40.00
2019-09-08 16:00,4.3,158.50,0.43,0.26,37.00
2019-09-08 17:00,3.9,164.50,0.45,0.25,36.00
2019-09-08 18:00,4.7,155.50,0.49,0.28,37.00
2019-09-08 19:00,4.7,147.50,0.46,0.28,37.00
2019-09-08 20:00,4.4,152.50,0.52,0.30,33.00
2019-09-08 21:00,4.3,160.50,0.48,0.29,34.00
2019-09-08 22:00,4.3,160.50,0.50,0.33,33.00
2019-09-08 23:00,4.4,167.50,0.65,0.35,34.00
2019-09-09 00:00,4.7,167.50,0.62,0.38,31.00
2019-09-09 01:00,5.3,169.50,0.66,0.37,32.00
2019-09-09 02:00,5.3,159.50,0.63,0.36,35.00
2019-09-09 03:00,5.3,161.50,0.46,0.30,36.00
2019-09-09 04:00,5.0,168.50,0.58,0.34,31.00
2019-09-09 05:00,4.7,165.50,0.53,0.32,32.00
2019-09-09 06:00,5.3,159.50,0.54,0.35,29.00
2019-09-09 07:00,5.0,155.50,0.51,0.32,32.00
2019-09-09 08:00,10.0,150.50,0.54,0.36,32.00
2019-09-09 09:00,10.0,144.50,0.60,0.37,28.00
2019-09-09 10:00,8.7,141.50,0.64,0.35,30.00
2019-09-09 11:00,4.7,148.50,0.56,0.35,36.00
2019-09-09 12:00,4.7,146.50,0.69,0.37,33.00
2019-09-09 13:00,4.2,150.50,0.71,0.38,32.00
2019-09-09 14:00,4.8,146.50,0.58,0.40,30.00
2019-09-09 15:00,4.8,145.50,0.63,0.39,28.00
2019-09-09 16:00,4.8,145.50,0.66,0.39,28.00
2019-09-09 17:00,4.5,144.50,0.85,0.40,28.00
2019-09-09 18:00,4.5,150.50,0.66,0.40,30.00
2019-09-09 19:00,5.3,149.50,0.67,0.41,33.00
2019-09-09 20:00,4.5,146.50,0.85,0.44,33.00
2019-09-09 21:00,4.8,149.50,0.78,0.41,33.00
2019-09-09 22:00,5.0,148.50,0.67,0.41,32.00
2019-09-09 23:00,4.8,150.50,0.64,0.43,32.00
2019-09-10 00:00,4.2,146.50,0.61,0.44,33.00
2019-09-10 01:00,4.9,152.50,0.88,0.43,33.00
2019-09-10 02:00,4.5,151.50,0.73,0.42,36.00
2019-09-10 03:00,5.0,156.50,0.79,0.43,32.00
2019-09-10 04:00,5.1,152.50,0.65,0.42,33.00
2019-09-10 05:00,4.7,149.50,0.68,0.39,34.00
2019-09-10 06:00,4.7,156.50,0.69,0.36,35.00
2019-09-10 07:00,4.8,151.50,0.59,0.38,33.00
2019-09-10 08:00,4.7,142.50,0.66,0.39,33.00
2019-09-10 09:00,5.1,136.50,0.75,0.47,30.00
2019-09-10 10:00,4.9,146.50,0.74,0.46,28.00
2019-09-10 11:00,4.8,148.50,0.90,0.51,29.00
2019-09-10 12:00,4.9,145.50,0.82,0.48,34.00
2019-09-10 13:00,4.7,145.50,0.94,0.52,33.00
2019-09-10 14:00,4.3,146.50,0.82,0.46,34.00
2019-09-10 15:00,5.1,142.50,0.82,0.45,34.00
2019-09-10 16:00,4.7,148.50,0.76,0.42,34.00
2019-09-10 17:00,4.8,148.50,0.76,0.47,31.00
2019-09-10 18:00,4.9,144.50,0.72,0.44,33.00
2019-09-10 19:00,5.3,145.50,0.80,0.48,32.00
2019-09-10 20:00,5.3,143.50,0.96,0.52,29.00
2019-09-10 21:00,4.9,136.50,0.82,0.51,29.00
2019-09-10 22:00,5.1,136.50,0.91,0.58,28.00
2019-09-10 23:00,5.1,137.50,0.97,0.60,29.00
2019-09-11 00:00,4.8,135.50,1.13,0.64,30.00
2019-09-11 01:00,4.4,130.50,1.39,0.65,32.00
2019-09-11 02:00,4.9,133.50,1.01,0.61,32.00
2019-09-11 03:00,4.7,138.50,0.89,0.57,34.00
2019-09-11 04:00,5.1,139.50,0.87,0.55,32.00
2019-09-11 05:00,5.0,141.50,1.07,0.55,32.00
2019-09-11 06:00,4.9,143.50,0.94,0.56,30.00
2019-09-11 07:00,4.9,143.50,1.04,0.56,30.00
2019-09-11 08:00,4.9,138.50,1.04,0.61,27.00
2019-09-11 09:00,4.1,136.50,1.03,0.58,29.00
2019-09-11 10:00,4.8,133.50,1.10,0.58,28.00
2019-09-11 11:00,4.7,131.50,1.25,0.67,27.00
2019-09-11 12:00,4.9,129.50,1.20,0.64,29.00
2019-09-11 13:00,3.9,123.50,1.03,0.66,30.00
2019-09-11 15:00,5.0,127.50,0.94,0.59,33.00
2019-09-11 16:00,4.8,128.50,0.89,0.54,34.00
2019-09-11 17:00,4.8,128.50,0.98,0.58,32.00
2019-09-11 18:00,4.5,129.50,0.91,0.60,32.00
2019-09-11 19:00,4.7,129.50,1.15,0.59,31.00
2019-09-11 20:00,4.9,132.50,1.02,0.58,32.00
2019-09-11 21:00,4.9,135.50,0.85,0.54,33.00
2019-09-11 22:00,4.7,135.50,0.95,0.59,28.00
2019-09-11 23:00,5.1,134.50,0.88,0.55,30.00
2019-09-12 00:00,4.9,134.50,0.83,0.55,29.00
2019-09-12 01:00,4.8,130.50,0.79,0.56,30.00
2019-09-12 02:00,5.7,130.50,0.82,0.57,31.00
2019-09-12 03:00,7.1,129.50,0.88,0.56,29.00
2019-09-12 04:00,5.6,134.50,0.77,0.55,28.00
2019-09-12 05:00,6.1,132.50,0.81,0.50,31.00
2019-09-12 06:00,5.7,134.50,0.92,0.55,27.00
2019-09-12 07:00,5.3,134.50,1.10,0.50,29.00
2019-09-12 08:00,5.1,133.50,0.88,0.55,27.00
2019-09-12 09:00,4.7,132.50,0.89,0.54,29.00
2019-09-12 10:00,5.1,133.50,0.82,0.52,29.00
2019-09-12 11:00,5.3,134.50,0.92,0.56,27.00
2019-09-12 12:00,5.0,133.50,0.90,0.55,29.00
2019-09-12 13:00,4.7,129.50,0.72,0.51,31.00
2019-09-12 14:00,5.3,133.50,0.90,0.56,27.00
2019-09-12 15:00,5.3,130.50,0.78,0.53,28.00
2019-09-12 16:00,5.6,135.50,0.78,0.48,30.00
2019-09-12 17:00,5.0,138.50,0.85,0.50,28.00
2019-09-12 18:00,5.4,136.50,0.91,0.49,30.00
2019-09-12 19:00,4.8,137.50,1.06,0.55,31.00
2019-09-12 20:00,5.0,136.50,0.84,0.57,30.00
2019-09-12 21:00,4.7,136.50,0.87,0.53,31.00
2019-09-12 22:00,4.9,137.50,0.96,0.53,33.00
2019-09-12 23:00,4.4,135.50,0.88,0.59,33.00
2019-09-13 00:00,4.5,131.50,0.91,0.55,36.00
2019-09-13 01:00,5.6,131.50,1.05,0.60,33.00
2019-09-13 02:00,5.3,127.50,0.96,0.60,33.00
2019-09-13 03:00,5.3,131.50,0.90,0.61,31.00
2019-09-13 04:00,5.1,133.50,0.76,0.52,32.00
2019-09-13 05:00,3.3,133.50,1.04,0.60,30.00
2019-09-13 06:00,3.6,134.50,0.87,0.54,33.00
2019-09-13 07:00,4.7,136.50,1.10,0.58,30.00
2019-09-13 08:00,4.5,133.50,0.91,0.59,28.00
2019-09-13 09:00,4.5,137.50,0.99,0.51,32.00
2019-09-13 10:00,4.7,137.50,1.01,0.54,31.00
2019-09-13 11:00,4.9,136.50,0.79,0.52,34.00
2019-09-13 12:00,4.7,141.50,1.09,0.59,31.00
2019-09-13 13:00,4.3,142.50,0.88,0.55,30.00
2019-09-13 14:00,4.5,141.50,0.94,0.55,30.00
2019-09-13 15:00,4.7,139.50,1.00,0.59,29.00
2019-09-13 16:00,4.9,135.50,1.37,0.66,29.00
2019-09-13 17:00,4.9,130.50,1.46,0.63,31.00
2019-09-13 18:00,5.0,128.50,1.22,0.74,29.00
2019-09-13 19:00,4.5,132.50,1.30,0.78,30.00
2019-09-13 20:00,4.7,132.50,1.32,0.84,28.00
2019-09-13 21:00,4.9,133.50,1.43,0.76,29.00
2019-09-13 22:00,5.0,136.50,1.15,0.74,30.00
2019-09-13 23:00,4.9,139.50,1.06,0.69,30.00
2019-09-14 00:00,4.7,138.50,1.29,0.67,31.00
2019-09-14 01:00,5.0,131.50,1.10,0.69,32.00
2019-09-14 02:00,5.1,126.50,1.35,0.72,30.00
2019-09-14 03:00,5.0,125.50,1.15,0.71,29.00
2019-09-14 04:00,5.3,121.50,1.20,0.73,30.00
2019-09-14 05:00,5.1,125.50,1.04,0.72,27.00
2019-09-14 06:00,5.4,121.50,1.28,0.81,28.00
2019-09-14 07:00,4.7,123.50,1.30,0.84,28.00
2019-09-14 08:00,4.9,121.50,1.35,0.82,28.00
2019-09-14 09:00,4.5,118.50,1.43,0.88,27.00
2019-09-14 10:00,5.3,119.50,1.62,0.90,26.00
2019-09-14 11:00,4.7,119.50,1.29,0.82,28.00
2019-09-14 12:00,5.0,120.50,1.48,0.81,28.00
2019-09-14 13:00,4.7,121.50,1.27,0.79,28.00
2019-09-14 14:00,5.4,120.50,1.38,0.89,28.00
2019-09-14 15:00,5.3,118.50,1.36,0.92,27.00
2019-09-14 16:00,5.6,116.50,1.47,0.89,28.00
2019-09-14 17:00,5.1,117.50,1.59,0.90,27.00
2019-09-14 18:00,5.3,119.50,1.48,0.90,28.00
2019-09-14 19:00,5.3,123.50,1.30,0.81,29.00
2019-09-14 20:00,5.1,123.50,1.31,0.81,28.00
2019-09-14 21:00,5.3,122.50,1.57,0.91,28.00
2019-09-14 22:00,5.3,119.50,1.51,0.90,27.00
2019-09-14 23:00,5.4,117.50,1.68,0.88,28.00
2019-09-15 00:00,5.3,112.50,1.70,0.89,30.00
2019-09-15 01:00,5.1,114.50,1.42,0.89,28.00
2019-09-15 02:00,5.9,115.50,1.38,0.91,26.00
2019-09-15 03:00,5.6,116.50,1.40,0.92,24.00
2019-09-15 04:00,5.6,114.50,1.64,0.85,26.00
2019-09-15 05:00,5.4,116.50,1.62,0.92,23.00
2019-09-15 06:00,5.3,118.50,1.92,0.91,22.00
2019-09-15 07:00,5.7,118.50,1.23,0.83,25.00
2019-09-15 08:00,5.1,119.50,1.24,0.79,24.00
2019-09-15 09:00,5.4,119.50,1.44,0.78,25.00
2019-09-15 10:00,5.4,117.50,1.31,0.81,25.00
2019-09-15 11:00,5.4,118.50,1.25,0.82,24.00
2019-09-15 12:00,5.9,117.50,1.38,0.82,22.00
2019-09-15 13:00,5.3,117.50,1.26,0.87,21.00
2019-09-15 14:00,5.6,112.50,1.49,0.95,24.00
2019-09-15 15:00,5.6,113.50,1.44,0.97,23.00
2019-09-15 16:00,5.9,112.50,1.42,1.01,23.00
2019-09-15 17:00,6.1,114.50,1.67,1.03,24.00
2019-09-15 18:00,4.9,113.50,2.12,1.16,23.00
2019-09-15 19:00,4.5,111.50,1.77,1.21,22.00
2019-09-15 20:00,6.5,110.50,2.36,1.10,23.00
2019-09-15 21:00,5.6,112.50,1.72,1.08,24.00
2019-09-15 22:00,6.5,113.50,1.43,1.02,24.00
2019-09-15 23:00,6.7,113.50,1.60,1.00,26.00
2019-09-16 00:00,6.5,112.50,1.79,1.05,24.00
2019-09-16 01:00,6.5,112.50,1.76,1.00,24.00
2019-09-16 02:00,5.1,112.50,1.58,1.00,24.00
2019-09-16 03:00,5.9,115.50,1.33,0.92,22.00
2019-09-16 04:00,5.6,117.50,1.52,0.92,23.00
2019-09-16 05:00,5.6,118.50,1.47,0.85,23.00
2019-09-16 06:00,5.9,120.50,1.53,0.90,22.00
2019-09-16 07:00,5.9,122.50,1.52,0.85,24.00
2019-09-16 08:00,5.9,121.50,1.38,0.81,23.00
2019-09-16 09:00,5.7,122.50,1.12,0.73,26.00
2019-09-16 10:00,5.6,122.50,1.23,0.74,24.00
2019-09-16 11:00,5.4,123.50,1.32,0.74,23.00
2019-09-16 12:00,5.9,127.50,1.16,0.68,25.00
2019-09-16 13:00,5.6,123.50,1.14,0.73,24.00
2019-09-16 14:00,5.7,117.50,1.30,0.84,23.00
2019-09-16 15:00,5.1,118.50,1.38,0.84,24.00
2019-09-16 16:00,5.6,116.50,1.55,0.91,24.00
2019-09-16 17:00,4.8,115.50,1.64,1.02,25.00
2019-09-16 18:00,5.0,114.50,1.74,1.03,25.00
2019-09-16 19:00,5.6,121.50,1.97,1.15,25.00
2019-09-16 20:00,5.7,123.50,2.03,1.17,24.00
2019-09-16 21:00,5.7,126.50,1.55,1.05,23.00
2019-09-16 22:00,5.4,123.50,1.50,0.91,26.00
2019-09-16 23:00,6.9,128.50,2.10,1.13,23.00
2019-09-17 00:00,6.5,125.50,2.32,1.23,23.00
2019-09-17 01:00,6.7,123.50,2.45,1.29,24.00
2019-09-17 02:00,7.1,121.50,2.74,1.32,22.00
2019-09-17 03:00,6.9,123.50,2.34,1.43,21.00
2019-09-17 04:00,7.1,124.50,2.27,1.45,20.00
2019-09-17 05:00,7.4,124.50,2.33,1.48,19.00
2019-09-17 06:00,7.4,121.50,1.94,1.35,21.00
2019-09-17 07:00,6.3,118.50,2.23,1.31,21.00
2019-09-17 08:00,7.4,117.50,2.34,1.28,22.00
2019-09-17 09:00,6.9,119.50,2.00,1.23,23.00
2019-09-17 10:00,7.4,123.50,2.25,1.22,25.00
2019-09-17 11:00,7.7,124.50,1.88,1.28,23.00
2019-09-17 12:00,7.4,124.50,1.86,1.22,25.00
2019-09-17 13:00,7.7,123.50,1.87,1.22,26.00
2019-09-17 14:00,7.7,120.50,2.14,1.25,26.00
2019-09-17 15:00,7.1,122.50,2.00,1.38,25.00
2019-09-17 16:00,5.3,120.50,3.12,1.47,25.00
2019-09-17 17:00,6.7,122.50,2.45,1.44,26.00
2019-09-17 18:00,6.3,122.50,2.13,1.50,25.00
2019-09-17 19:00,6.5,124.50,2.57,1.55,23.00
2019-09-17 20:00,6.9,127.50,2.47,1.39,27.00
2019-09-17 21:00,7.1,126.50,2.07,1.42,25.00
2019-09-17 22:00,6.7,130.50,2.21,1.28,26.00